Change the Weather History Date:

Saturday, September 28, 2013

  Actual Average Record
Temperature  
Mean Temperature 56 °F 52 °F  
Max Temperature 64 °F 65 °F 96 °F (1905)
Min Temperature 48 °F 40 °F 18 °F (1930)
Degree Days  
Heating Degree Days 9 13  
Month to date heating degree days 110 226  
Since 1 July heating degree days 154 292  
Cooling Degree Days 0 0  
Month to date cooling degree days 55 28  
Year to date cooling degree days 521 443  
Growing Degree Days 6 (Base 50)    
Moisture  
Dew Point 45 °F    
Average Humidity 65    
Maximum Humidity 93    
Minimum Humidity 37    
Precipitation  
Precipitation 0.45 in 0.06 in 0.45 in (2013)
Month to date precipitation 2.17 1.89  
Year to date precipitation 11.37 16.08  
Sea Level Pressure  
Sea Level Pressure 29.76 in    
Wind  
Wind Speed 11 mph (WNW)    
Max Wind Speed 21 mph    
Max Gust Speed 26 mph    
Visibility 8 miles    
Events Rain    
T = Trace of Precipitation, MM = Missing Value Source: NWS Daily Summary

Daily Weather History Graph

Daily Weather History Graph

Search for Another Location

Airport or City:

Trip Planner

Search our weather history database for the weather conditions in past years. The results will help you decide how hot, cold, wet, or windy it might be!

Date:

Astronomy

Sep. 28, 2013 Rise Set
Actual Time 7:29 AM CDT 7:19 PM CDT
Civil Twilight 6:59 AM CDT 7:49 PM CDT
Nautical Twilight 6:24 AM CDT 8:25 PM CDT
Astronomical Twilight 5:47 AM CDT 9:01 PM CDT
Moon 12:59 AM CDT (9/28) 3:57 PM CDT (9/28)
Length of Visible Light 12h 50m
Length of Day
11h 49m
Waning Crescent, 36% of the Moon is Illuminated
Sep 28
Waning Crescent
Oct 4
New
Oct 11
First Quarter
Oct 18
Full
Oct 26
Last Quarter

Hourly Weather History & Observations

Time (CDT) Temp. Dew Point Humidity Pressure Visibility Wind Dir Wind Speed Gust Speed Precip Events Conditions
12:56 AM 51.1 °F 48.9 °F 92% 29.80 in 10.0 mi NW 6.9 mph - 0.03 in Rain Light Rain
1:35 AM 51.8 °F 48.2 °F 88% 29.78 in 7.0 mi NW 13.8 mph - 0.03 in Rain Light Rain
1:42 AM 50.0 °F 48.2 °F 94% 29.78 in 8.0 mi NW 15.0 mph 21.9 mph 0.04 in Rain Light Rain
1:56 AM 50.0 °F 48.0 °F 93% 29.80 in 4.0 mi NW 12.7 mph - 0.08 in Rain Rain
1:58 AM 50.0 °F 48.2 °F 94% 29.78 in 4.0 mi NW 13.8 mph - 0.01 in Rain Rain
2:27 AM 50.0 °F 46.4 °F 87% 29.76 in 6.0 mi NW 13.8 mph - 0.08 in Rain Rain
2:56 AM 48.9 °F 46.9 °F 93% 29.78 in 10.0 mi NW 10.4 mph - 0.11 in Rain Light Rain
3:21 AM 48.2 °F 46.4 °F 93% 29.75 in 6.0 mi NW 9.2 mph - 0.03 in Rain Rain
3:56 AM 48.9 °F 46.9 °F 93% 29.73 in 10.0 mi NNW 9.2 mph - 0.06 in Rain Light Rain
4:13 AM 48.2 °F 46.4 °F 93% 29.72 in 10.0 mi NW 10.4 mph - 0.00 in Rain Light Rain
4:56 AM 48.9 °F 46.9 °F 93% 29.74 in 2.5 mi NW 13.8 mph - 0.01 in Rain Light Rain
5:21 AM 48.2 °F 46.4 °F 93% 29.74 in 1.8 mi WNW 12.7 mph - 0.02 in Rain Light Rain
5:48 AM 48.2 °F 46.4 °F 93% 29.72 in 2.5 mi NW 13.8 mph - 0.04 in Rain Light Rain
5:56 AM 48.9 °F 46.9 °F 93% 29.74 in 3.0 mi NW 15.0 mph - 0.04 in Rain Light Rain
6:48 AM 48.2 °F 46.4 °F 93% 29.72 in 7.0 mi NW 11.5 mph - 0.02 in Rain Light Rain
6:56 AM 48.9 °F 46.9 °F 93% 29.74 in 8.0 mi NW 10.4 mph - 0.02 in Rain Light Rain
7:30 AM 48.2 °F 46.4 °F 93% 29.72 in 9.0 mi NW 8.1 mph - 0.00 in Rain Light Rain
7:56 AM 48.9 °F 46.9 °F 93% 29.75 in 6.0 mi WNW 6.9 mph - 0.01 in Rain Light Rain
8:13 AM 48.2 °F 48.2 °F 100% 29.73 in 3.0 mi WNW 6.9 mph - 0.03 in Rain Rain
8:15 AM 48.2 °F 48.2 °F 100% 29.73 in 3.0 mi WNW 5.8 mph - 0.04 in Rain Rain
8:47 AM 48.2 °F 46.4 °F 93% 29.73 in 7.0 mi WNW 13.8 mph - 0.08 in Rain Light Rain
8:56 AM 48.9 °F 46.9 °F 93% 29.75 in 7.0 mi WNW 10.4 mph - 0.08 in Rain Light Rain
9:04 AM 50.0 °F 46.4 °F 87% 29.73 in 9.0 mi WNW 12.7 mph - 0.01 in Rain Light Rain
9:56 AM 48.9 °F 45.0 °F 86% 29.76 in 10.0 mi West 13.8 mph - 0.03 in Rain Light Rain
10:56 AM 48.9 °F 44.1 °F 83% 29.75 in 10.0 mi WNW 10.4 mph - 0.01 in Rain Light Rain
11:56 AM 52.0 °F 44.1 °F 74% 29.77 in 10.0 mi West 10.4 mph - 0.00 in   Overcast
12:56 PM 55.0 °F 46.0 °F 72% 29.77 in 10.0 mi West 10.4 mph - N/A   Mostly Cloudy
1:56 PM 60.1 °F 43.0 °F 53% 29.75 in 10.0 mi West 13.8 mph 18.4 mph N/A   Partly Cloudy
2:56 PM 63.0 °F 39.0 °F 41% 29.75 in 10.0 mi West 18.4 mph 24.2 mph N/A   Scattered Clouds
3:56 PM 63.0 °F 37.9 °F 40% 29.74 in 10.0 mi West 15.0 mph 23.0 mph N/A   Scattered Clouds
4:56 PM 64.0 °F 37.0 °F 37% 29.75 in 10.0 mi West 11.5 mph 21.9 mph N/A   Clear
5:56 PM 63.0 °F 37.9 °F 40% 29.77 in 10.0 mi WSW 17.3 mph - N/A   Clear
6:56 PM 60.1 °F 39.0 °F 46% 29.79 in 10.0 mi West 9.2 mph - N/A   Clear
7:56 PM 57.0 °F 41.0 °F 55% 29.80 in 10.0 mi WSW 6.9 mph - N/A   Mostly Cloudy
8:56 PM 53.1 °F 41.0 °F 64% 29.81 in 10.0 mi SW 5.8 mph - N/A   Clear
9:56 PM 53.1 °F 42.1 °F 66% 29.82 in 10.0 mi SW 8.1 mph - N/A   Clear
10:56 PM 51.1 °F 42.1 °F 71% 29.83 in 10.0 mi SW 8.1 mph - N/A   Clear
11:56 PM 50.0 °F 41.0 °F 71% 29.83 in 10.0 mi SW 8.1 mph - N/A   Clear